Date String (YYYY-MM-DD hh:mm:ss) UTC,Instrument flags,Ambient pressure (hPa),Sample flow (lpm),Bypass flow (lpm),Sample temperature (°C),Ambient temperature (°C),ASC tube jacket temperature (°C),LED temperature (°C),Box temperature (°C),Sample RH (%),Span deviation,Mass concentration (μg/m³),Mass concentration (μg/m³),Mass concentration (μg/m³)
DateTimeUTC,F1_M11,P_M11,Q1_M11,Q2_M11,T1_M11,T2_M11,T3_M11,T4_M11,T5_M11,U1_M11,ZSPAN_M11,X2_M11,X0_M11,X1_M11
2022-09-29 18:00:00,,0829.6,5.01,0.00,30.0,28.9,00.0,38.6,31.9,17.1,0000.0,0003.91,0009.41,0003.43
2022-09-29 18:01:00,,0829.5,4.99,0.00,30.1,28.8,00.0,38.6,32.0,17.4,0000.0,0003.89,0009.02,0003.42
2022-09-29 18:02:00,,0829.6,5.00,0.00,30.1,27.8,00.0,38.6,31.9,17.1,0000.0,0003.89,0008.99,0003.42
2022-09-29 18:03:00,,0829.5,5.00,0.00,30.0,26.8,00.0,38.6,31.8,17.1,0000.0,0003.93,0009.52,0003.42
2022-09-29 18:04:00,,0829.6,5.00,0.00,30.0,26.9,00.0,38.5,31.8,17.5,0000.0,0003.99,0010.17,0003.43
2022-09-29 18:05:00,,0829.5,5.01,0.00,29.9,27.2,00.0,38.5,31.7,17.4,0000.0,0003.98,0009.60,0003.41
2022-09-29 18:06:00,,0829.5,5.00,0.00,29.9,27.5,00.0,38.5,31.6,16.9,0000.0,0003.94,0009.53,0003.39
2022-09-29 18:07:00,,0829.5,5.00,0.00,29.9,27.8,00.0,38.5,31.7,16.6,0000.0,0003.93,0009.60,0003.37
2022-09-29 18:08:00,,0829.5,4.99,0.00,29.9,28.0,00.0,38.5,31.7,16.5,0000.0,0003.88,0009.45,0003.34
2022-09-29 18:09:00,,0829.5,5.00,0.00,29.9,28.3,00.0,38.5,31.7,16.0,0000.0,0003.89,0009.83,0003.32
2022-09-29 18:10:00,,0829.5,5.01,0.00,29.9,28.5,00.0,38.5,31.8,16.1,0000.0,0003.85,0009.24,0003.31
2022-09-29 18:11:00,,0829.5,4.99,0.00,29.9,28.7,00.0,38.6,31.9,15.9,0000.0,0003.83,0009.17,0003.29
2022-09-29 18:12:00,,0829.5,5.01,0.00,30.0,28.7,00.0,38.6,31.9,15.7,0000.0,0003.79,0009.10,0003.26
2022-09-29 18:13:00,,0829.5,5.00,0.00,30.0,27.8,00.0,38.6,31.9,16.0,0000.0,0003.77,0009.07,0003.24
2022-09-29 18:14:00,,0829.5,4.99,0.00,29.9,27.2,00.0,38.5,31.8,16.3,0000.0,0003.73,0008.47,0003.22
2022-09-29 18:15:00,,0829.5,4.99,0.00,29.9,27.4,00.0,38.5,31.8,16.2,0000.0,0003.67,0007.20,0003.19
2022-09-29 18:16:00,,0829.6,5.00,0.00,29.9,27.6,00.0,38.5,31.7,16.6,0000.0,0003.63,0006.92,0003.19
2022-09-29 18:17:00,,0829.6,5.00,0.00,29.9,27.9,00.0,38.5,31.7,16.2,0000.0,0003.64,0006.91,0003.19
2022-09-29 18:18:00,,0829.6,4.98,0.00,29.9,28.2,00.0,38.5,31.7,15.9,0000.0,0003.65,0006.86,0003.19
2022-09-29 18:19:00,,0829.7,5.00,0.00,29.9,28.4,00.0,38.5,31.8,16.1,0000.0,0003.65,0007.22,0003.19
2022-09-29 18:20:00,,0829.6,4.99,0.00,29.9,28.6,00.0,38.6,31.9,16.1,0000.0,0003.60,0006.63,0003.19
2022-09-29 18:21:00,,0829.6,5.02,0.00,30.0,28.8,00.0,38.6,31.9,16.0,0000.0,0003.59,0007.64,0003.19
2022-09-29 18:22:00,,0829.5,4.99,0.00,30.0,28.6,00.0,38.6,32.0,15.8,0000.0,0003.60,0008.51,0003.19
2022-09-29 18:23:00,,0829.5,5.00,0.00,30.0,27.3,00.0,38.6,31.9,16.2,0000.0,0003.62,0008.97,0003.20
2022-09-29 18:24:00,,0829.6,5.00,0.00,30.0,26.6,00.0,38.5,31.7,17.0,0000.0,0003.62,0008.94,0003.21
2022-09-29 18:25:00,,0829.5,5.00,0.00,29.9,26.8,00.0,38.5,31.7,16.7,0000.0,0003.63,0008.90,0003.22
2022-09-29 18:26:00,,0829.5,5.00,0.00,29.8,27.1,00.0,38.5,31.6,16.7,0000.0,0003.60,0008.85,0003.22
2022-09-29 18:27:00,,0829.5,4.99,0.00,29.8,27.5,00.0,38.5,31.6,17.0,0000.0,0003.59,0008.80,0003.21
2022-09-29 18:28:00,,0829.5,4.99,0.00,29.8,27.8,00.0,38.5,31.6,16.3,0000.0,0003.56,0008.71,0003.21
2022-09-29 18:29:00,,0829.5,5.01,0.00,29.8,28.0,00.0,38.5,31.7,15.9,0000.0,0003.55,0008.66,0003.20
2022-09-29 18:30:00,,0829.5,5.00,0.00,29.8,28.3,00.0,38.5,31.7,16.0,0000.0,0003.54,0008.60,0003.20
2022-09-29 18:31:00,,0829.4,5.00,0.00,29.8,28.5,00.0,38.5,31.7,16.3,0000.0,0003.53,0008.60,0003.19
2022-09-29 18:32:00,,0829.3,5.00,0.00,29.9,28.6,00.0,38.5,31.8,16.1,0000.0,0003.52,0007.83,0003.18
2022-09-29 18:33:00,,0829.3,5.00,0.00,29.9,28.8,00.0,38.5,31.9,15.8,0000.0,0003.51,0006.62,0003.18
2022-09-29 18:34:00,,0829.2,4.99,0.00,29.9,28.9,00.0,38.5,31.9,15.7,0000.0,0003.51,0006.02,0003.18
2022-09-29 18:35:00,,0829.2,5.00,0.00,30.0,28.5,00.0,38.5,31.9,15.6,0000.0,0003.51,0007.19,0003.18
2022-09-29 18:36:00,,0829.2,5.01,0.00,30.0,27.1,00.0,38.5,31.8,15.8,0000.0,0003.47,0007.09,0003.17
2022-09-29 18:37:00,,0829.2,5.00,0.00,29.9,26.6,00.0,38.5,31.7,15.6,0000.0,0003.47,0007.21,0003.16
2022-09-29 18:38:00,,0829.2,5.00,0.00,29.9,26.9,00.0,38.5,31.7,15.4,0000.0,0003.49,0007.58,0003.16
2022-09-29 18:39:00,,0829.2,5.00,0.00,29.8,27.2,00.0,38.4,31.6,15.1,0000.0,0003.49,0007.56,0003.16
2022-09-29 18:40:00,,0829.3,5.00,0.00,29.8,27.6,00.0,38.4,31.6,15.2,0000.0,0003.48,0007.59,0003.16
2022-09-29 18:41:00,,0829.2,5.01,0.00,29.8,27.8,00.0,38.4,31.6,15.3,0000.0,0003.49,0007.52,0003.16
2022-09-29 18:42:00,,0829.3,5.01,0.00,29.8,28.1,00.0,38.4,31.6,15.5,0000.0,0003.49,0007.32,0003.15
2022-09-29 18:43:00,,0829.2,4.99,0.00,29.8,28.3,00.0,38.4,31.7,15.4,0000.0,0003.50,0007.46,0003.15
2022-09-29 18:44:00,,0829.2,5.01,0.00,29.8,28.5,00.0,38.5,31.7,15.2,0000.0,0003.48,0007.63,0003.15
2022-09-29 18:45:00,,0829.2,4.99,0.00,29.9,28.7,00.0,38.5,31.8,15.3,0000.0,0003.49,0007.79,0003.15
2022-09-29 18:46:00,,0829.3,5.00,0.00,29.9,28.8,00.0,38.5,31.8,15.1,0000.0,0003.46,0006.98,0003.14
2022-09-29 18:47:00,,0829.2,5.00,0.00,29.9,28.9,00.0,38.5,31.9,15.0,0000.0,0003.45,0006.70,0003.13
2022-09-29 18:48:00,,0829.3,5.00,0.00,30.0,28.1,00.0,38.5,31.9,14.9,0000.0,0003.44,0006.51,0003.13
2022-09-29 18:49:00,,0829.2,5.00,0.00,29.9,26.8,00.0,38.5,31.7,14.9,0000.0,0003.41,0006.04,0003.12
2022-09-29 18:50:00,,0829.2,5.00,0.00,29.9,26.6,00.0,38.5,31.7,14.8,0000.0,0003.40,0005.81,0003.11
2022-09-29 18:51:00,,0829.2,5.00,0.00,29.8,26.9,00.0,38.4,31.6,14.8,0000.0,0003.39,0005.69,0003.10
2022-09-29 18:52:00,,0829.1,4.99,0.00,29.8,27.2,00.0,38.4,31.6,15.1,0000.0,0003.37,0005.56,0003.09
2022-09-29 18:53:00,,0829.0,5.00,0.00,29.8,27.5,00.0,38.4,31.6,15.6,0000.0,0003.38,0005.59,0003.08
2022-09-29 18:54:00,,0829.1,5.01,0.00,29.8,27.8,00.0,38.4,31.6,15.6,0000.0,0003.39,0005.49,0003.09
2022-09-29 18:55:00,,0829.0,5.01,0.00,29.8,28.1,00.0,38.4,31.6,16.8,0000.0,0003.43,0006.53,0003.11
2022-09-29 18:56:00,,0829.1,4.99,0.00,29.8,28.3,00.0,38.4,31.7,17.4,0000.0,0003.47,0008.14,0003.14
2022-09-29 18:57:00,,0829.0,5.01,0.00,29.8,28.5,00.0,38.5,31.8,17.1,0000.0,0003.53,0008.46,0003.16
2022-09-29 18:58:00,,0829.1,4.99,0.00,29.9,28.6,00.0,38.5,31.8,17.2,0000.0,0003.56,0008.70,0003.18
2022-09-29 18:59:00,,0829.1,5.00,0.00,29.9,28.8,00.0,38.5,31.8,17.6,0000.0,0003.57,0008.95,0003.20
